Weather History for Pratt, KS

Change the Weather History Date:

Wednesday, February 26, 2014

  Actual Average (KP28) Record (KP28)
Temperature  
Mean Temperature 24 °F 41 °F  
Max Temperature 37 °F 54 °F 81 °F (1996)
Min Temperature 10 °F 29 °F 0 °F (1960)
Degree Days  
Heating Degree Days 42 24  
Month to date heating degree days 706  
Since 1 July heating degree days 3483  
Cooling Degree Days 0 0  
Month to date cooling degree days 0  
Year to date cooling degree days 0  
Moisture  
Dew Point 11 °F    
Average Humidity 64    
Maximum Humidity 93    
Minimum Humidity 35    
Precipitation  
Precipitation 0.00 in 0.04 in 0.40 in (1997)
Month to date precipitation 0.94  
Year to date precipitation 1.65  
Snow  
Snow 0.00 in 0.00 in - ()
Month to date snowfall 2.1  
Since 1 July snowfall 8.3  
Snow Depth -    
Sea Level Pressure  
Sea Level Pressure 30.23 in    
Wind  
Wind Speed 10 mph (WNW)    
Max Wind Speed 18 mph    
Max Gust Speed 22 mph    
Visibility 10 miles    
Events Snow    
T = Trace of Precipitation, MM = Missing Value Source: NWS Daily Summary

Daily Weather History Graph

Daily Weather History Graph

Search for Another Location

Airport:

Trip Planner

Search our weather history database for the weather conditions in past years. The results will help you decide how hot, cold, wet, or windy it might be!

Date:

Astronomy

Feb. 26, 2014 Rise Set
Actual Time 7:10 AM CST 6:25 PM CST
Civil Twilight 6:44 AM CST 6:52 PM CST
Nautical Twilight 6:13 AM CST 7:22 PM CST
Astronomical Twilight 5:43 AM CST 7:52 PM CST
Moon 4:55 AM CST (2/26) 3:44 PM CST (2/26)
Length of Visible Light 12h 08m
Length of Day
11h 15m
Waning Crescent, 10% of the Moon is Illuminated
Feb 26
Waning Crescent
Mar 1
New
Mar 8
First Quarter
Mar 16
Full
Mar 23
Last Quarter

Hourly Weather History & Observations

Time (CST) Temp. Windchill Dew Point Humidity Pressure Visibility Wind Dir Wind Speed Gust Speed Precip Events Conditions
12:15 AM 17.6 °F 2.2 °F 10.4 °F 73% 30.45 in 10.0 mi North 17.3 mph 21.9 mph N/A   Overcast
12:35 AM 17.6 °F 2.2 °F 10.4 °F 73% 30.44 in 10.0 mi North 17.3 mph - N/A   Mostly Cloudy
12:55 AM 17.6 °F 3.7 °F 12.2 °F 79% 30.44 in 10.0 mi North 13.8 mph - N/A   Mostly Cloudy
1:15 AM 17.6 °F 3.2 °F 12.2 °F 79% 30.45 in 10.0 mi North 15.0 mph - N/A Snow Light Snow
1:35 AM 17.6 °F 4.3 °F 12.2 °F 79% 30.44 in 10.0 mi North 12.7 mph - N/A   Scattered Clouds
1:55 AM 17.6 °F 3.7 °F 12.2 °F 79% 30.43 in 7.0 mi North 13.8 mph - N/A Snow Light Snow
2:15 AM 15.8 °F 4.2 °F 12.2 °F 86% 30.43 in 10.0 mi North 9.2 mph - N/A   Scattered Clouds
2:35 AM 15.8 °F 4.2 °F 12.2 °F 86% 30.42 in 10.0 mi North 9.2 mph - N/A   Scattered Clouds
2:55 AM 15.8 °F 4.2 °F 12.2 °F 86% 30.41 in 10.0 mi North 9.2 mph - N/A   Scattered Clouds
3:15 AM 14.0 °F 3.9 °F 12.2 °F 93% 30.40 in 7.0 mi North 6.9 mph - N/A Snow Light Snow
3:35 AM 15.8 °F 7.2 °F 14.0 °F 93% 30.39 in 10.0 mi North 5.8 mph - N/A Snow Light Snow
3:55 AM 17.6 °F 6.4 °F 14.0 °F 86% 30.39 in 7.0 mi North 9.2 mph - N/A Snow Light Snow
4:15 AM 17.6 °F 2.2 °F 12.2 °F 79% 30.38 in 5.0 mi North 17.3 mph - N/A Snow Light Snow
4:35 AM 17.6 °F 3.2 °F 12.2 °F 79% 30.37 in 10.0 mi North 15.0 mph - N/A   Overcast
4:55 AM 15.8 °F 3.4 °F 10.4 °F 79% 30.37 in 10.0 mi NNW 10.4 mph - N/A   Mostly Cloudy
5:15 AM 14.0 °F 3.9 °F 10.4 °F 86% 30.36 in 10.0 mi NNW 6.9 mph - N/A Snow Light Snow
5:35 AM 12.2 °F 6.1 °F 10.4 °F 92% 30.35 in 10.0 mi North 3.5 mph - N/A   Clear
5:55 AM 10.4 °F 2.2 °F 8.6 °F 92% 30.34 in 10.0 mi North 4.6 mph - N/A   Clear
6:15 AM 10.4 °F 4.0 °F 8.6 °F 92% 30.34 in 10.0 mi NW 3.5 mph - N/A   Clear
6:35 AM 10.4 °F 4.0 °F 8.6 °F 92% 30.34 in 10.0 mi NNW 3.5 mph - N/A   Clear
6:55 AM 10.4 °F - 8.6 °F 92% 30.34 in 10.0 mi Calm Calm - N/A   Clear
7:15 AM 10.4 °F - 8.6 °F 92% 30.34 in 10.0 mi Calm Calm - N/A   Clear
7:35 AM 12.2 °F - 8.6 °F 85% 30.34 in 10.0 mi Calm Calm - N/A   Clear
7:55 AM 12.2 °F 6.1 °F 10.4 °F 92% 30.34 in 10.0 mi NW 3.5 mph - N/A   Clear
8:15 AM 14.0 °F 8.2 °F 10.4 °F 86% 30.35 in 10.0 mi NNW 3.5 mph - N/A   Clear
8:35 AM 15.8 °F 10.2 °F 10.4 °F 79% 30.35 in 10.0 mi NNW 3.5 mph - N/A   Clear
8:55 AM 17.6 °F - 6.8 °F 63% 30.35 in 10.0 mi Calm Calm - N/A   Clear
9:15 AM 17.6 °F 10.7 °F 8.6 °F 68% 30.34 in 10.0 mi WNW 4.6 mph - N/A   Clear
9:35 AM 19.4 °F 10.4 °F 10.4 °F 68% 30.34 in 10.0 mi West 6.9 mph - N/A   Scattered Clouds
9:55 AM 19.4 °F 14.3 °F 10.4 °F 68% 30.33 in 10.0 mi NW 3.5 mph - N/A   Scattered Clouds
10:15 AM 19.4 °F 12.8 °F 8.6 °F 63% 30.32 in 10.0 mi West 4.6 mph - N/A   Scattered Clouds
10:35 AM 21.2 °F - 8.6 °F 58% 30.32 in 10.0 mi Calm Calm - N/A   Clear
10:55 AM 23.0 °F 18.4 °F 10.4 °F 59% 30.31 in 10.0 mi West 3.5 mph - N/A   Clear
11:15 AM 24.8 °F - 8.6 °F 50% 30.31 in 10.0 mi Calm Calm - N/A   Clear
11:35 AM 26.6 °F - 8.6 °F 47% 30.30 in 10.0 mi Calm Calm - N/A   Clear
11:55 AM 28.4 °F 21.2 °F 8.6 °F 43% 30.28 in 10.0 mi West 6.9 mph - N/A   Clear
12:15 PM 28.4 °F 21.2 °F 8.6 °F 43% 30.27 in 10.0 mi West 6.9 mph - N/A   Clear
12:35 PM 28.4 °F 23.3 °F 6.8 °F 40% 30.25 in 10.0 mi West 4.6 mph - N/A   Clear
12:55 PM 30.2 °F 22.6 °F 6.8 °F 37% 30.22 in 10.0 mi WSW 8.1 mph - N/A   Clear
1:15 PM 32.0 °F 24.2 °F 6.8 °F 35% 30.21 in 10.0 mi West 9.2 mph - N/A   Clear
1:35 PM 32.0 °F 23.0 °F 8.6 °F 38% 30.18 in 10.0 mi WSW 11.5 mph - N/A   Clear
1:55 PM 32.0 °F 23.6 °F 8.6 °F 38% 30.16 in 10.0 mi SW 10.4 mph - N/A   Clear
2:15 PM 32.0 °F 22.1 °F 8.6 °F 38% 30.14 in 10.0 mi WSW 13.8 mph 18.4 mph N/A   Clear
2:35 PM 33.8 °F 24.3 °F 8.6 °F 35% 30.12 in 10.0 mi SW 13.8 mph - N/A   Clear
2:55 PM 35.6 °F 25.9 °F 10.4 °F 35% 30.11 in 10.0 mi WSW 16.1 mph 21.9 mph N/A   Clear
3:15 PM 35.6 °F 26.2 °F 12.2 °F 38% 30.09 in 10.0 mi WSW 15.0 mph 21.9 mph N/A   Clear
3:35 PM 37.4 °F 27.8 °F 12.2 °F 36% 30.07 in 10.0 mi SW 17.3 mph 21.9 mph N/A   Clear
3:55 PM 37.4 °F 27.5 °F 12.2 °F 36% 30.07 in 10.0 mi WSW 18.4 mph - N/A   Clear
4:15 PM 37.4 °F 28.5 °F 12.2 °F 36% 30.07 in 10.0 mi West 15.0 mph - N/A   Clear
4:35 PM 37.4 °F 28.9 °F 12.2 °F 36% 30.07 in 10.0 mi West 13.8 mph 19.6 mph N/A   Clear
4:55 PM 37.4 °F 29.8 °F 12.2 °F 36% 30.06 in 10.0 mi West 11.5 mph - N/A   Clear
5:15 PM 37.4 °F 28.9 °F 12.2 °F 36% 30.06 in 10.0 mi WSW 13.8 mph 20.7 mph N/A   Clear
5:35 PM 37.4 °F 29.3 °F 12.2 °F 36% 30.05 in 10.0 mi WSW 12.7 mph - N/A   Clear
5:55 PM 35.6 °F 27.5 °F 12.2 °F 38% 30.05 in 10.0 mi West 11.5 mph - N/A   Clear
6:15 PM 33.8 °F 26.4 °F 14.0 °F 44% 30.05 in 10.0 mi WSW 9.2 mph - N/A   Clear
6:35 PM 30.2 °F 22.6 °F 14.0 °F 51% 30.05 in 10.0 mi SW 8.1 mph - N/A   Clear
6:55 PM 28.4 °F 19.7 °F 14.0 °F 55% 30.05 in 10.0 mi SW 9.2 mph - N/A   Clear
7:15 PM 26.6 °F 17.5 °F 14.0 °F 59% 30.05 in 10.0 mi SW 9.2 mph - N/A   Clear
7:35 PM 24.8 °F 16.1 °F 14.0 °F 64% 30.04 in 10.0 mi SW 8.1 mph - N/A   Clear
7:55 PM 24.8 °F 16.9 °F 14.0 °F 64% 30.04 in 10.0 mi SW 6.9 mph - N/A   Clear
8:15 PM 24.8 °F 16.1 °F 14.0 °F 64% 30.04 in 10.0 mi SW 8.1 mph - N/A   Clear
8:35 PM 23.0 °F 13.1 °F 14.0 °F 68% 30.04 in 10.0 mi SW 9.2 mph - N/A   Clear
8:55 PM 24.8 °F 15.3 °F 14.0 °F 64% 30.04 in 10.0 mi WSW 9.2 mph - N/A   Clear
9:15 PM 24.8 °F 15.3 °F 15.8 °F 69% 30.04 in 10.0 mi WSW 9.2 mph - N/A   Clear
9:35 PM 24.8 °F 15.3 °F 15.8 °F 69% 30.04 in 10.0 mi WSW 9.2 mph - N/A   Clear
9:55 PM 23.0 °F 15.8 °F 14.0 °F 68% 30.05 in 10.0 mi West 5.8 mph - N/A   Clear
10:15 PM 24.8 °F 15.3 °F 15.8 °F 69% 30.05 in 10.0 mi West 9.2 mph - N/A   Clear
10:35 PM 26.6 °F 18.2 °F 15.8 °F 64% 30.05 in 10.0 mi West 8.1 mph - N/A   Clear
10:55 PM 23.0 °F 13.9 °F 15.8 °F 74% 30.06 in 10.0 mi WNW 8.1 mph - N/A   Clear
11:15 PM 23.0 °F 12.4 °F 15.8 °F 74% 30.05 in 10.0 mi WNW 10.4 mph - N/A   Clear
11:35 PM 23.0 °F 13.1 °F 15.8 °F 74% 30.05 in 10.0 mi WNW 9.2 mph - N/A   Clear
11:55 PM 23.0 °F 13.1 °F 15.8 °F 74% 30.05 in 10.0 mi WNW 9.2 mph - N/A   Clear